Terminal Aerodrome Forecast
Issued by NWS Pittsburgh, PA

Current Version | Previous Version | Graphics & Text | Print | Product List | Glossary On
Versions: 1 2 3 4 5 6 7 8 9 10 11 12 13 14 15 16 17 18 19 20 21 22 23 24 25 26 27 28 29 30 31 32 33 34 35
000
FTUS41 KPBZ 210824 CCA
TAFPIT
TAF COR
KPIT 210824Z 2108/2212 00000KT 1SM BR SCT001 SCT120
      TEMPO 2108/2111 1/2SM FG VV002
     FM211600 17004KT P6SM BKN040
     FM220800 11004KT P6SM BKN035=

USA.gov is the U.S. government's official web portal to all federal, state and local government web resources and services.